FW4111 Weather Reports


time (UTC)temp
C
wind
direction
speed
KPH
gust
KPH
rain 1hr
cm
rain 24hr
cm
rain mn
cm
humidity
%
barometer
mb
20260504194540 15 242 19.3 37.0 0.00 0.00 0.00 81 1010.4
20260504193043 16 219 20.9 38.6 0.00 0.00 0.00 79 1010.5
20260504191532 16 236 16.1 38.6 0.00 0.00 0.00 80 1010.7
20260504190012 16 128 17.7 41.8 0.00 0.00 0.00 82 1011.0
20260504184507 16 250 19.3 32.2 0.00 0.00 0.00 80 1011.0
20260504183003 15 183 20.9 38.6 0.00 0.00 0.00 83 1011.2
20260504181604 15 241 17.7 37.0 0.00 0.00 0.00 81 1011.3
20260504180141 15 241 19.3 35.4 0.00 0.00 0.00 80 1011.4
20260504174540 16 189 17.7 38.6 0.00 0.00 0.00 81 1011.6
20260504173039 16 231 16.1 35.4 0.00 0.00 0.00 78 1011.7
20260504171536 16 249 19.3 37.0 0.00 0.00 0.00 79 1012.1
20260504160107 16 174 17.7 32.2 0.00 0.00 0.00 76 1012.7
20260504140111 15 219 14.5 33.8 0.00 0.00 0.00 75 1013.5
20260504120121 12 239 24.1 32.2 0.00 0.00 0.00 79 1014.7
20260504090115 10 233 32.2 43.5 0.00 0.00 0.00 77 1014.5
20260504081547 11 243 29.0 41.8 0.00 0.00 0.00 73 1014.6
20260504070122 11 229 17.7 25.7 0.00 0.00 0.00 68 1014.0
20260504050118 11 254 19.3 29.0 0.00 0.00 0.00 63 1013.7
20260504044543 11 274 16.1 27.4 0.00 0.00 0.00 68 1013.7
20260504043046 11 247 20.9 29.0 0.00 0.00 0.00 66 1013.6
20260504041539 11 255 20.9 27.4 0.00 0.00 0.00 64 1013.3
20260504040037 11 240 22.5 29.0 0.00 0.00 0.00 62 1013.1
20260504034517 11 234 16.1 24.1 0.00 0.00 0.00 64 1013.0
20260504033013 11 249 16.1 29.0 0.00 0.00 0.00 65 1013.0
20260504031514 11 255 17.7 27.4 0.00 0.00 0.00 62 1013.0
20260504030111 11 250 20.9 29.0 0.00 0.00 0.00 63 1012.9
20260504024557 11 259 19.3 25.7 0.00 0.00 0.00 63 1013.0
20260504023049 11 252 16.1 24.1 0.00 0.00 0.00 64 1013.0
20260504021547 12 251 17.7 25.7 0.00 0.00 0.00 62 1013.1
20260504020034 12 236 16.1 24.1 0.00 0.00 0.00 62 1013.0
20260504014534 12 251 14.5 25.7 0.00 0.00 0.00 63 1013.0
20260504013025 12 236 14.5 22.5 0.00 0.00 0.00 63 1012.9
20260504011522 12 247 14.5 22.5 0.00 0.00 0.00 60 1012.6
20260504010004 12 256 19.3 25.7 0.00 0.00 0.00 59 1012.4
20260504004502 12 260 16.1 22.5 0.00 0.00 0.00 55 1012.3
20260504003102 13 257 14.5 19.3 0.00 0.00 0.00 56 1012.1
20260504001602 13 240 14.5 20.9 0.00 0.00 0.00 56 1012.0
20260504000101 13 271 9.7 17.7 0.00 0.00 0.00 55 1011.8
20260503234538 14 255 8.0 16.1 0.00 0.00 0.00 52 1011.7
20260503233038 14 258 6.4 17.7 0.00 0.00 0.00 49 1011.5
20260503231536 15 286 8.0 25.7 0.00 0.00 0.00 46 1011.6
20260503230017 15 278 12.9 29.0 0.00 0.00 0.00 47 1011.5
20260503224512 15 276 19.3 30.6 0.00 0.00 0.00 47 1011.5
20260503223010 15 347 19.3 32.2 0.00 0.00 0.00 43 1011.2
20260503221506 15 295 16.1 38.6 0.00 0.00 0.00 50 1011.3
20260503220108 15 278 16.1 38.6 0.00 0.00 0.00 47 1011.2
20260503214549 14 270 20.9 38.6 0.00 0.00 0.00 45 1011.1
20260503213045 14 274 20.9 45.1 0.00 0.00 0.00 49 1011.1
20260503211558 14 319 17.7 35.4 0.00 0.00 0.00 45 1011.0
20260503210022 14 334 17.7 35.4 0.00 0.00 0.00 48 1010.9
20260503204520 14 285 20.9 40.2 0.00 0.00 0.00 46 1010.8
20260503203019 13 304 20.9 38.6 0.00 0.00 0.00 45 1010.8
20260503201517 13 293 20.9 35.4 0.00 0.00 0.00 47 1010.8
20260503200119 13 283 20.9 40.2 0.00 0.00 0.00 46 1010.9